Peachtree City, GA

6:06 PM EST on December 08, 2019 (GMT -0500)
Peachtree City-Falcon

Weather History for KFFC - June, 2019

Change the Weather History Date:

Thursday, June 13, 2019

  Actual Average Record
Temperature  
Mean Temperature 71 °F 76 °F  
Max Temperature 82 °F 87 °F 97 °F (2016)
Min Temperature 60 °F 64 °F 54 °F (2007)
Degree Days  
Heating Degree Days 0 0  
Month to date heating degree days 0 0  
Since 1 June heating degree days 0 0  
Since 1 July heating degree days 2325 2950  
Cooling Degree Days 6 11  
Month to date cooling degree days 145 122  
Year to date cooling degree days 552 312  
Since 1 June cooling degree days 145 122  
Growing Degree Days 22 (Base 50)    
Moisture  
Dew Point 60 °F    
Average Humidity 65    
Maximum Humidity 93    
Minimum Humidity 36    
Precipitation  
Precipitation 0.00 in 0.13 in 1.07 in (2013)
Month to date precipitation 6.94 1.60  
Year to date precipitation 27.70 23.12  
Snow  
Snow 0.00 in - - ()
Month to date snowfall 0.0  
Since 1 June snowfall 0.0  
Since 1 July snowfall T  
Snow Depth 0.00 in    
Sea Level Pressure  
Sea Level Pressure 29.98 in    
Wind  
Wind Speed 5 mph (WNW)    
Max Wind Speed 16 mph    
Max Gust Speed 22 mph    
Visibility 10 miles    
Events      
T = Trace of Precipitation, MM = Missing Value Source: NWS Daily Summary

Daily Weather History Graph

Daily Weather History Graph

Search for Another Location

Airport or City:

Astronomy

Jun. 13, 2019 Rise Set
Actual Time 6:28 AM EDT 8:48 PM EDT
Civil Twilight 5:59 AM EDT 9:17 PM EDT
Nautical Twilight 5:23 AM EDT 9:52 PM EDT
Astronomical Twilight 4:45 AM EDT 10:31 PM EDT
Moon 5:13 PM EDT (6/13) 3:59 AM EDT (6/13)
Length of Visible Light 15h 18m
Length of Day
14h 20m
Waxing Gibbous, 85% of the Moon is Illuminated
Jun 13
Waxing Gibbous
Jun 17
Full
Jun 25
Last Quarter
Jul 2
New
Jul 9
First Quarter

Hourly Weather History & Observations

Time (EDT) Temp. Heat Index Dew Point Humidity Pressure Visibility Wind Dir Wind Speed Gust Speed Precip Events Conditions
12:40 AM 70.0 °F - 64.9 °F 84% 29.96 in 10.0 mi Calm Calm - N/A   Overcast
12:53 AM 70.0 °F - 64.9 °F 84% 29.95 in 10.0 mi Calm Calm - N/A   Overcast
1:53 AM 69.1 °F - 66.0 °F 90% 29.94 in 10.0 mi SE 3.5 mph - N/A   Overcast
2:53 AM 69.1 °F - 66.0 °F 90% 29.92 in 10.0 mi SSE 4.6 mph - N/A   Overcast
3:53 AM 69.1 °F - 66.0 °F 90% 29.92 in 10.0 mi Calm Calm - N/A   Overcast
4:15 AM 69.1 °F - 66.0 °F 90% 29.93 in 10.0 mi Calm Calm - N/A   Overcast
4:28 AM 69.1 °F - 66.0 °F 90% 29.93 in 10.0 mi Calm Calm - N/A   Overcast
4:43 AM 69.1 °F - 66.0 °F 90% 29.93 in 10.0 mi Calm Calm - N/A   Overcast
4:53 AM 69.1 °F - 66.0 °F 90% 29.92 in 10.0 mi Calm Calm - N/A   Overcast
5:46 AM 68.0 °F - 64.9 °F 90% 29.94 in 10.0 mi Calm Calm - N/A   Scattered Clouds
5:53 AM 68.0 °F - 64.9 °F 90% 29.93 in 10.0 mi Calm Calm - N/A   Mostly Cloudy
6:19 AM 66.9 °F - 64.0 °F 90% 29.95 in 9.0 mi Calm Calm - N/A   Scattered Clouds
6:30 AM 66.9 °F - 64.0 °F 90% 29.95 in 8.0 mi Calm Calm - N/A   Partly Cloudy
6:53 AM 66.0 °F - 64.0 °F 93% 29.94 in 7.0 mi Calm Calm - N/A   Clear
7:53 AM 68.0 °F - 64.0 °F 87% 29.95 in 10.0 mi Calm Calm - N/A   Clear
8:53 AM 72.0 °F - 62.1 °F 71% 29.97 in 10.0 mi West 5.8 mph - N/A   Clear
9:53 AM 75.0 °F - 57.0 °F 53% 29.98 in 10.0 mi WNW 11.5 mph - N/A   Clear
10:53 AM 75.9 °F - 55.0 °F 48% 29.99 in 10.0 mi NW 12.7 mph 23.0 mph N/A   Clear
11:53 AM 79.0 °F - 53.1 °F 40% 30.00 in 10.0 mi WNW 10.4 mph 20.7 mph N/A   Clear
12:53 PM 80.1 °F - 52.0 °F 38% 30.00 in 10.0 mi WNW 10.4 mph 20.7 mph N/A   Clear
1:53 PM 80.1 °F - 52.0 °F 38% 30.00 in 10.0 mi West 10.4 mph - N/A   Partly Cloudy
2:53 PM 80.1 °F 79.9 °F 53.1 °F 39% 30.00 in 10.0 mi West 8.1 mph - N/A   Partly Cloudy
3:53 PM 80.1 °F 80.0 °F 54.0 °F 40% 30.01 in 10.0 mi NW 9.2 mph - N/A   Partly Cloudy
4:53 PM 81.0 °F 80.7 °F 55.0 °F 41% 30.00 in 10.0 mi West 10.4 mph - N/A   Scattered Clouds
5:53 PM 79.0 °F - 53.1 °F 40% 30.01 in 10.0 mi WNW 6.9 mph - N/A   Partly Cloudy
6:53 PM 79.0 °F - 51.1 °F 38% 30.02 in 10.0 mi WNW 6.9 mph - N/A   Partly Cloudy
7:53 PM 78.1 °F - 53.1 °F 42% 30.03 in 10.0 mi NW 6.9 mph - N/A   Clear
8:53 PM 69.1 °F - 59.0 °F 70% 30.05 in 10.0 mi Calm Calm - N/A   Clear
9:53 PM 64.9 °F - 59.0 °F 81% 30.07 in 10.0 mi Calm Calm - N/A   Clear
10:53 PM 62.1 °F - 57.9 °F 86% 30.09 in 10.0 mi Calm Calm - N/A   Clear
11:53 PM 61.0 °F - 57.0 °F 87% 30.10 in 10.0 mi Calm Calm - N/A   Clear